Regional Weather Roundup
Issued by NWS Wakefield, VA

Home | Current Version | Previous Version | Graphics & Text | Print | Product List | Glossary On
Versions: 1 2 3 4 5 6 7 8 9 10 11 12 13 14 15 16 17 18 19 20 21 22 23 24 25 26 27
000
ASUS41 KAKQ 010215
RWRAKQ

REGIONAL WEATHER ROUNDUP
NATIONAL WEATHER SERVICE WAKEFIELD VA
1000 PM EDT SUN APR 30 2017

Note: "fair" indicates few or no clouds below 12,000 feet with no
significant weather and/or obstructions to visibility. * = Denotes
station may not report precipitation (e.g., rain,snow,etc.),
thunder or fog.

VAZ042-051-052>054-056-010300-
NORTHERN VIRGINIA

CITY           SKY/WX    TMP DP  RH WIND       PRES   REMARKS
WASH NATIONAL  PTCLDY    78  65  63 SE6       30.03R
DULLES         PTCLDY    78  61  55 S9        30.01R
FORT BELVOIR   CLEAR     76  63  63 S3        30.02R
QUANTICO       CLEAR     75  68  78 S8        30.02R
FREDERICKSBRG* CLEAR     77  65  65 S8        30.02R
STAFFORD*      CLEAR     76  64  66 S9        30.06R
WARRENTON      CLEAR     77  59  53 S6        30.01R
CULPEPER*      CLEAR     76  64  64 S6        30.02R
MANASSAS*        N/A     72  63  73 S6        30.02R
LEESBURG*      CLEAR     79  64  61 S7        30.02R
WINCHESTER     CLEAR     72  59  64 S5        30.00R
FRONT ROYAL*   CLEAR     73  61  64 CALM      29.99R
LURAY*         CLEAR     73  61  64 SW8       30.01R
$$

VAZ048-049-060>072-079>083-010300-
CENTRAL AND SOUTH CENTRAL VIRGINIA

CITY           SKY/WX    TMP DP  RH WIND       PRES   REMARKS
RICHMOND       MOCLDY    76  66  71 S6        30.06R
CHESTERFIELD*  CLOUDY    79  54  41 S10       30.08R
PETERSBURG*    CLOUDY    75  65  71 CALM      30.08R
HANOVER        CLOUDY    79  63  57 S8        30.06S
TAPPAHANNOCK*  CLEAR     75  58  55 CALM      30.06R
QUINTON*       MOCLDY    76  67  73 CALM      30.06R
CHARLOTTSVILLE CLEAR     78  63  59 S17       30.02S
GORDONSVILLE*  CLEAR     74  64  71 SW7       30.03R
ORANGE*        CLEAR     73  63  68 S8        30.02S
LOUISA*        PTCLDY    79  66  65 S5        30.04R
BUMPASS*       FAIR      74  65  72 S3        30.04S
FARMVILLE*     CLOUDY    77  65  66 S8        30.05R
CREWE*         MOCLDY    74  68  80 S3        30.07R
FORT PICKETT*  NOT AVBL
CHASE CITY*    MOCLDY    75  64  69 S3        30.08R
CLARKSVILLE*   FAIR      72  66  83 S5        30.07S
SOUTH HILL*    CLOUDY    74  69  84 S8        30.14S
LAWRENCEVILLE* CLOUDY    74  68  79 S5        30.09R
EMPORIA*       PTCLDY    73  66  78 SE5       30.11R
$$

VAZ088>098-010300-
SOUTHEAST VIRGINIA

CITY           SKY/WX    TMP DP  RH WIND       PRES   REMARKS
NORFOLK        PTCLDY    80  68  66 S10       30.09R
VIRGINIA BEACH MOCLDY    77  66  68 S9        30.09S
NORFOLK NAVAL  MOCLDY    80  66  62 S7        30.10S
WEST POINT*    PTCLDY    76  65  70 S5        30.08R
SALUDA*        MOCLDY    77  67  72 S6        30.06S
NEWPORT NEWS   MOCLDY    80  67  64 S8        30.08S
LANGLEY AFB    MOCLDY    80  69  69 S10       30.08S
FORT EUSTIS    MOCLDY    79  68  69 S6        30.06S
WILLIAMSBURG*  CLOUDY    81  68  65 CALM      30.08S
HR EXEC AP*    FAIR      77  66  69 S7        30.08R
FRANKLIN*      PTCLDY    76  67  74 S7        30.10R
US460-WAKEFLD  PTCLDY    77  68  73 CALM      30.09R
$$

VAZ020-022-025-037-045-010300-
WEST CENTRAL AND SOUTHWEST VIRGINIA

CITY           SKY/WX    TMP DP  RH WIND       PRES   REMARKS
STAUNTON*      CLEAR     73  61  66 S7        30.06R
WAYNESBORO*    CLEAR     73  64  73 S7        30.06R
HOT SPRINGS VA CLOUDY    64  52  63 S12G18    30.16S
LYNCHBURG      PTCLDY    71  63  75 SW5       30.08R
DANVILLE       CLEAR     71  65  81 S5        30.07S
SOUTH BOSTON*  FAIR      72  64  76 S5        30.07S
MARTINSVILLE   CLOUDY    71  65  80 CALM      30.10R
ROANOKE        PTCLDY    73  64  73 S14       30.08R
BLACKSBURG     CLOUDY    70  61  73 S6        30.13S
DUBLIN*        PTCLDY    71  58  64 SE3       30.10S
MARION*        CLOUDY    71  59  65 S5        30.12S
HILLSVILLE*    CLOUDY    67  65  92 S5G18     30.11S
RICHLANDS*     FAIR      71  55  57 SE7G20    30.07R
WISE*          CLOUDY    72  52  49 S8        30.05S
ABINGDON*      PTCLDY    74  57  54 S6        30.06R
$$

MDZ021>025-VAZ099-100-010300-
SOUTHERN MARYLAND AND THE DELMARVA PENINSULA

CITY           SKY/WX    TMP DP  RH WIND       PRES   REMARKS
PATUXENT RIVER CLEAR     77  67  71 S7        30.04R
BAY BRIDGE APT CLEAR     63  59  88 E12G21    30.06R
LEONARDTOWN    PTCLDY    77  63  61 S5        30.06R
DOVER          CLOUDY    57  57 100 NE13      30.10F
GEORGETOWN     CLOUDY    59  57  93 NE13      30.10R FOG
EASTON         CLEAR     64  59  82 E9        30.11R
CAMBRIDGE        N/A     72  66  83 CALM      30.06R
SALISBURY      CLEAR     72  66  81 S6        30.06S
OCEAN CITY     CLEAR     69  65  86 SW7       30.09S
WALLOPS ISLAND CLEAR     68  66  93 S17       30.08F
ACCOMACK*      PTCLDY    73  68  85 S8        30.07F
$$

NCZ012>017-030>032-010300-
NORTH CENTRAL AND EASTERN NORTH CAROLINA

CITY           SKY/WX    TMP DP  RH WIND       PRES   REMARKS
ROANOKE RAPIDS FAIR      72  70  94 S6        30.10R
RALEIGH        MOCLDY    72  68  87 SE6       30.10S
ELIZABETH CITY CLEAR     75  70  84 S10       30.13R
AHOSKIE*         N/A     73  63  72 S6        30.11R
EDENTON*       CLEAR     76  69  77 S8        30.14R
CURRITUCK*     CLEAR     76  69  78 S5        30.13S
KILL DEVIL HLS CLEAR     74  69  87 SW7       30.14R
MANTEO         CLEAR     74  70  87 SW18G24   30.16R
CAPE HATTERAS  CLEAR     74  69  85 SW13      30.18R HAZE
TARBORO*       NOT AVBL
GOLDSBORO      CLEAR     75  67  77 S8        30.12R
WASHINGTON     CLEAR     73  67  82 S7        30.15R
GREENVILLE     CLEAR     75  64  69 S13       30.15R
NEW BERN       CLEAR     72  70  93 S9        30.18R
WILMINGTON     PTCLDY    73  69  87 S10       30.17R
$$

VAZ048-010300-
ELSEWHERE

CITY           SKY/WX    TMP DP  RH WIND       PRES   REMARKS
HARRISBURG PA  MOCLDY    63  50  62 E15G22    30.05R
BALTIMORE      MOCLDY    64  61  90 E12       30.06R
ANNAPOLIS      PTCLDY    65  63  93 E6        30.05R
ANDREWS AFB    CLEAR     72  63  71 SE6       30.03R
PHILADELPHIA   CLOUDY    53  49  86 E13       30.13F
HENDERSON NC   CLEAR     69  64  84 S6        30.09S
GREENSBORO     CLOUDY    73  68  84 S10       30.08S
ROCKY MOUNT    CLEAR     74  63  68 S8        30.11S
$$

VAZ100-010300-
MARINE

STATION/POSITION TIME  TEMP    WIND        PRES    WAVE   SWELL
                       AIR SEA DIR/SP/G            HT/PER HT/PER
                 (UTC) (F)     (DEG/KT/KT) (MB)    (FT/S) (FT/S)
CAPE MAY NJ      0136   55 60   70/ 11/ 17 1019.1R
LEWES DE         0136   56 61   90/ 15/ 18 1019.0S
15NM E FENWICK I 0150   62 58  180/ 16/ 17 1018.7R   3/ 5   2/ 8
WACHAPREAGUE VA  0142   72 77  200/  9/ 12 1018.3F
THOMAS POINT MD  0200   65 63   80/ 12/ 13   N/A
GOOSES REEF MD   0200   70 60  190/  8/ 10 1017.9    1
COVE POINT MD    0142   76     190/ 10/ 11 1017.8R
SOLOMONS ISLAND  0124   75 63  180/  7/  9   N/A
BISHOPS HEAD MD  0142   73 74  160/ 10/ 11 1018.0S
PINEY POINT MD   0142          190/  7/  8   N/A
POTOMAC MD       0200   72 66  190/  8/ 10 1016.6    1
CAMBRIDGE MD     0142   75 69                N/A
LEWISETTA VA     0142   78 76  200/ 10/ 12 1017.0F
RAPPAHANNOCK LGT 0142          140/ 12/ 13 1018.8F
STINGRAY PT      0150   70     200/ 10/ 12 1018.5S
YORK RVR RNG VA  0142   72     170/ 11/ 12 1017.8F
YORKTOWN VA      0142   79 70  180/  6/  8 1018.0F
JAMESTOWN VA     0200   78 74  180/  6/  8   N/A     0
DOMINION TERM VA 0142   78     180/  9/ 10 1018.7F
KIPTOPEKE VA     0142      68  170/  9/ 10   N/A
CHES BAY BRIDGE  0142   78 69  210/ 12/ 15 1018.7S
CAPE HENRY VA    0142   80     180/  7/ 13   N/A
WILLOUBY STN VA  0142   80     180/ 13/ 15 1019.6F
S CRANEY ISL VA  0142   79     200/ 10/ 13 1018.5F
CAPE HENRY BUOY  0142      68                N/A     2/ 5
1ST LANDING BUOY 0200   74 67              1018.9    1/ 3
CAPE CHARLES BUO 0151      63                N/A     2/ 4
64NM E OF VA BCH 0150   64 60  200/ 14/ 16 1020.9R   3/ 4   2/ 6
DUCK PIER NC     0142   76 59  200/ 17/ 20 1020.0R
44100 DUCK FRF   0105      63                N/A     2/ 4
44056 DUCK FRF   0130      61                N/A     2/ 9
OREGON INLET NC  0142   75 79  190/ 22/ 25 1021.1R
HATTERAS NC      0142   74 76  200/ 10/ 16 1021.9R
DIAMOND SHLS NC  0150   76 75  200/ 17/ 21 1022.1S   3/ 5   2/ 9
CAPE LOOKOUT NC  0200   74     190/ 11/ 13 1022.0S
$$




USA.gov is the U.S. government's official web portal to all federal, state and local government web resources and services.